owner,sensor,date,latitude,longitude,vertical_datum,wind_speed,wind_to_direction,wind_speed_of_gust,qcFlag 
ADCP,ioos:station:wmo:42887:1,2016-01-01T00:00:00Z,28.1910,-88.4960,48.2,8.3,4.0,99.0,'11111222,11111222,11144222' 
ADCP,ioos:station:wmo:42887:1,2016-01-01T00:20:00Z,28.1910,-88.4960,48.2,8.9,1.0,99.0,'11111222,11111222,11144222' 
ADCP,ioos:station:wmo:42887:1,2016-01-01T00:40:00Z,28.1910,-88.4960,48.2,8.2,6.0,99.0,'11111222,11111222,11144222' 
ADCP,ioos:station:wmo:42887:1,2016-01-01T01:00:00Z,28.1910,-88.4960,48.2,8.2,11.0,99.0,'11111222,11111222,11144222' 
ADCP,ioos:station:wmo:42887:1,2016-01-01T01:20:00Z,28.1910,-88.4960,48.2,7.4,10.0,99.0,'11111222,11111222,11144222' 
ADCP,ioos:station:wmo:42887:1,2016-01-01T01:40:00Z,28.1910,-88.4960,48.2,8.4,9.0,99.0,'11111222,11111222,11144222' 
ADCP,ioos:station:wmo:42887:1,2016-01-01T02:00:00Z,28.1910,-88.4960,48.2,8.9,10.0,99.0,'11111222,11111222,11144222' 
ADCP,ioos:station:wmo:42887:1,2016-01-01T02:20:00Z,28.1910,-88.4960,48.2,8.2,6.0,99.0,'11111222,11111222,11144222' 
ADCP,ioos:station:wmo:42887:1,2016-01-01T02:40:00Z,28.1910,-88.4960,48.2,9.1,4.0,99.0,'11111222,11111222,11144222' 
ADCP,ioos:station:wmo:42887:1,2016-01-01T03:00:00Z,28.1910,-88.4960,48.2,9.0,6.0,99.0,'11111222,11111222,11144222' 
ADCP,ioos:station:wmo:42887:1,2016-01-01T03:20:00Z,28.1910,-88.4960,48.2,8.4,23.0,99.0,'11111222,11111222,11144222' 
ADCP,ioos:station:wmo:42887:1,2016-01-01T03:40:00Z,28.1910,-88.4960,48.2,8.7,20.0,99.0,'11111222,11111222,11144222' 
ADCP,ioos:station:wmo:42887:1,2016-01-01T04:00:00Z,28.1910,-88.4960,48.2,8.3,28.0,99.0,'11111222,11111222,11144222' 
ADCP,ioos:station:wmo:42887:1,2016-01-01T04:20:00Z,28.1910,-88.4960,48.2,7.9,35.0,99.0,'11111222,11111222,11144222' 
ADCP,ioos:station:wmo:42887:1,2016-01-01T04:40:00Z,28.1910,-88.4960,48.2,7.8,37.0,99.0,'11111222,11111222,11144222' 
ADCP,ioos:station:wmo:42887:1,2016-01-01T05:00:00Z,28.1910,-88.4960,48.2,7.7,20.0,99.0,'11111222,11111222,11144222' 
ADCP,ioos:station:wmo:42887:1,2016-01-01T05:20:00Z,28.1910,-88.4960,48.2,7.9,335.0,99.0,'11111222,11111222,11144222' 
ADCP,ioos:station:wmo:42887:1,2016-01-01T05:40:00Z,28.1910,-88.4960,48.2,8.0,17.0,99.0,'11111222,11111222,11144222' 
ADCP,ioos:station:wmo:42887:1,2016-01-01T06:00:00Z,28.1910,-88.4960,48.2,7.1,37.0,99.0,'11111222,11111222,11144222' 
ADCP,ioos:station:wmo:42887:1,2016-01-01T06:20:00Z,28.1910,-88.4960,48.2,6.8,34.0,99.0,'11111222,11111222,11144222' 
ADCP,ioos:station:wmo:42887:1,2016-01-01T06:40:00Z,28.1910,-88.4960,48.2,6.4,34.0,99.0,'11111222,11111222,11144222' 
ADCP,ioos:station:wmo:42887:1,2016-01-01T07:00:00Z,28.1910,-88.4960,48.2,6.8,37.0,99.0,'11111222,11111222,11144222' 
ADCP,ioos:station:wmo:42887:1,2016-01-01T07:20:00Z,28.1910,-88.4960,48.2,7.1,42.0,99.0,'11111222,11111222,11144222' 
ADCP,ioos:station:wmo:42887:1,2016-01-01T07:40:00Z,28.1910,-88.4960,48.2,7.6,38.0,99.0,'11111222,11111222,11144222' 
ADCP,ioos:station:wmo:42887:1,2016-01-01T08:00:00Z,28.1910,-88.4960,48.2,7.9,26.0,99.0,'11111222,11111222,11144222' 
ADCP,ioos:station:wmo:42887:1,2016-01-01T08:20:00Z,28.1910,-88.4960,48.2,7.5,26.0,99.0,'11111222,11111222,11144222' 
ADCP,ioos:station:wmo:42887:1,2016-01-01T08:40:00Z,28.1910,-88.4960,48.2,7.2,26.0,99.0,'11111222,11111222,11144222' 
ADCP,ioos:station:wmo:42887:1,2016-01-01T09:00:00Z,28.1910,-88.4960,48.2,7.7,30.0,99.0,'11111222,11111222,11144222' 
ADCP,ioos:station:wmo:42887:1,2016-01-01T09:20:00Z,28.1910,-88.4960,48.2,7.3,31.0,99.0,'11111222,11111222,11144222' 
ADCP,ioos:station:wmo:42887:1,2016-01-01T09:40:00Z,28.1910,-88.4960,48.2,7.9,31.0,99.0,'11111222,11111222,11144222' 
ADCP,ioos:station:wmo:42887:1,2016-01-01T10:00:00Z,28.1910,-88.4960,48.2,8.2,19.0,99.0,'11111222,11111222,11144222' 
ADCP,ioos:station:wmo:42887:1,2016-01-01T10:20:00Z,28.1910,-88.4960,48.2,8.0,32.0,99.0,'11111222,11111222,11144222' 
ADCP,ioos:station:wmo:42887:1,2016-01-01T10:40:00Z,28.1910,-88.4960,48.2,7.2,42.0,99.0,'11111222,11111222,11144222' 
ADCP,ioos:station:wmo:42887:1,2016-01-01T11:00:00Z,28.1910,-88.4960,48.2,7.5,30.0,99.0,'11111222,11111222,11144222' 
ADCP,ioos:station:wmo:42887:1,2016-01-01T11:20:00Z,28.1910,-88.4960,48.2,8.1,24.0,99.0,'11111222,11111222,11144222' 
ADCP,ioos:station:wmo:42887:1,2016-01-01T11:40:00Z,28.1910,-88.4960,48.2,7.5,19.0,99.0,'11111222,11111222,11144222' 
ADCP,ioos:station:wmo:42887:1,2016-01-01T12:00:00Z,28.1910,-88.4960,48.2,12.8,352.0,99.0,'11111222,11111222,11144222' 
ADCP,ioos:station:wmo:42887:1,2016-01-01T12:20:00Z,28.1910,-88.4960,48.2,13.5,1.0,99.0,'11111222,11111222,11144222' 
ADCP,ioos:station:wmo:42887:1,2016-01-01T12:40:00Z,28.1910,-88.4960,48.2,16.1,348.0,99.0,'11111222,11111222,11144222' 
ADCP,ioos:station:wmo:42887:1,2016-01-01T13:00:00Z,28.1910,-88.4960,48.2,14.2,346.0,99.0,'11111222,11111222,11144222' 
ADCP,ioos:station:wmo:42887:1,2016-01-01T13:20:00Z,28.1910,-88.4960,48.2,13.8,9.0,99.0,'11111222,11111222,11144222' 
ADCP,ioos:station:wmo:42887:1,2016-01-01T13:40:00Z,28.1910,-88.4960,48.2,13.3,358.0,99.0,'11111222,11111222,11144222' 
ADCP,ioos:station:wmo:42887:1,2016-01-01T14:00:00Z,28.1910,-88.4960,48.2,13.2,10.0,99.0,'11111222,11111222,11144222' 
ADCP,ioos:station:wmo:42887:1,2016-01-01T14:20:00Z,28.1910,-88.4960,48.2,13.2,7.0,99.0,'11111222,11111222,11144222' 
ADCP,ioos:station:wmo:42887:1,2016-01-01T14:40:00Z,28.1910,-88.4960,48.2,11.9,7.0,99.0,'11111222,11111222,11144222' 
ADCP,ioos:station:wmo:42887:1,2016-01-01T15:00:00Z,28.1910,-88.4960,48.2,12.2,9.0,99.0,'11111222,11111222,11144222' 
ADCP,ioos:station:wmo:42887:1,2016-01-01T15:20:00Z,28.1910,-88.4960,48.2,11.2,12.0,99.0,'11111222,11111222,11144222' 
ADCP,ioos:station:wmo:42887:1,2016-01-01T15:40:00Z,28.1910,-88.4960,48.2,10.6,8.0,99.0,'11111222,11111222,11144222' 
ADCP,ioos:station:wmo:42887:1,2016-01-01T16:00:00Z,28.1910,-88.4960,48.2,8.9,21.0,99.0,'11111222,11111222,11144222' 
ADCP,ioos:station:wmo:42887:1,2016-01-01T16:20:00Z,28.1910,-88.4960,48.2,8.8,13.0,99.0,'11111222,11111222,11144222' 
ADCP,ioos:station:wmo:42887:1,2016-01-01T16:40:00Z,28.1910,-88.4960,48.2,9.5,24.0,99.0,'11111222,11111222,11144222' 
ADCP,ioos:station:wmo:42887:1,2016-01-01T17:00:00Z,28.1910,-88.4960,48.2,10.8,23.0,99.0,'11111222,11111222,11144222' 
ADCP,ioos:station:wmo:42887:1,2016-01-01T17:20:00Z,28.1910,-88.4960,48.2,8.6,43.0,99.0,'11111222,11111222,11144222' 
ADCP,ioos:station:wmo:42887:1,2016-01-01T17:40:00Z,28.1910,-88.4960,48.2,9.8,31.0,99.0,'11111222,11111222,11144222' 
ADCP,ioos:station:wmo:42887:1,2016-01-01T18:00:00Z,28.1910,-88.4960,48.2,10.2,7.0,99.0,'11111222,11111222,11144222' 
ADCP,ioos:station:wmo:42887:1,2016-01-01T18:20:00Z,28.1910,-88.4960,48.2,10.1,5.0,99.0,'11111222,11111222,11144222' 
ADCP,ioos:station:wmo:42887:1,2016-01-01T18:40:00Z,28.1910,-88.4960,48.2,10.9,13.0,99.0,'11111222,11111222,11144222' 
ADCP,ioos:station:wmo:42887:1,2016-01-01T19:00:00Z,28.1910,-88.4960,48.2,10.6,11.0,99.0,'11111222,11111222,11144222' 
ADCP,ioos:station:wmo:42887:1,2016-01-01T19:20:00Z,28.1910,-88.4960,48.2,10.1,11.0,99.0,'11111222,11111222,11144222' 
ADCP,ioos:station:wmo:42887:1,2016-01-01T19:40:00Z,28.1910,-88.4960,48.2,8.9,2.0,99.0,'11111222,11111222,11144222' 
ADCP,ioos:station:wmo:42887:1,2016-01-01T20:00:00Z,28.1910,-88.4960,48.2,10.3,3.0,99.0,'11111222,11111222,11144222' 
ADCP,ioos:station:wmo:42887:1,2016-01-01T20:20:00Z,28.1910,-88.4960,48.2,9.6,3.0,99.0,'11111222,11111222,11144222' 
ADCP,ioos:station:wmo:42887:1,2016-01-01T20:40:00Z,28.1910,-88.4960,48.2,10.3,358.0,99.0,'11111222,11111222,11144222' 
ADCP,ioos:station:wmo:42887:1,2016-01-01T21:00:00Z,28.1910,-88.4960,48.2,10.2,2.0,99.0,'11111222,11111222,11144222' 
ADCP,ioos:station:wmo:42887:1,2016-01-01T21:20:00Z,28.1910,-88.4960,48.2,10.7,9.0,99.0,'11111222,11111222,11144222' 
ADCP,ioos:station:wmo:42887:1,2016-01-01T21:40:00Z,28.1910,-88.4960,48.2,10.0,355.0,99.0,'11111222,11111222,11144222' 
ADCP,ioos:station:wmo:42887:1,2016-01-01T22:00:00Z,28.1910,-88.4960,48.2,9.8,6.0,99.0,'11111222,11111222,11144222' 
ADCP,ioos:station:wmo:42887:1,2016-01-01T22:20:00Z,28.1910,-88.4960,48.2,9.8,15.0,99.0,'11111222,11111222,11144222' 
ADCP,ioos:station:wmo:42887:1,2016-01-01T22:40:00Z,28.1910,-88.4960,48.2,9.9,10.0,99.0,'11111222,11111222,11144222' 
ADCP,ioos:station:wmo:42887:1,2016-01-01T23:00:00Z,28.1910,-88.4960,48.2,9.6,4.0,99.0,'11111222,11111222,11144222' 
ADCP,ioos:station:wmo:42887:1,2016-01-01T23:20:00Z,28.1910,-88.4960,48.2,9.4,11.0,99.0,'11111222,11111222,11144222' 
ADCP,ioos:station:wmo:42887:1,2016-01-01T23:40:00Z,28.1910,-88.4960,48.2,10.1,14.0,99.0,'11111222,11111222,11144222' 
ADCP,ioos:station:wmo:42887:1,2016-01-02T00:00:00Z,28.1910,-88.4960,48.2,10.5,9.0,99.0,'11111222,11111222,11144222' 
ADCP,ioos:station:wmo:42887:1,2016-01-02T00:20:00Z,28.1910,-88.4960,48.2,11.0,8.0,99.0,'11111222,11111222,11144222' 
ADCP,ioos:station:wmo:42887:1,2016-01-02T00:40:00Z,28.1910,-88.4960,48.2,10.5,12.0,99.0,'11111222,11111222,11144222' 
ADCP,ioos:station:wmo:42887:1,2016-01-02T01:00:00Z,28.1910,-88.4960,48.2,11.4,14.0,99.0,'11111222,11111222,11144222' 
ADCP,ioos:station:wmo:42887:1,2016-01-02T01:20:00Z,28.1910,-88.4960,48.2,11.4,22.0,99.0,'11111222,11111222,11144222' 
ADCP,ioos:station:wmo:42887:1,2016-01-02T01:40:00Z,28.1910,-88.4960,48.2,10.1,357.0,99.0,'11111222,11111222,11144222' 
ADCP,ioos:station:wmo:42887:1,2016-01-02T02:00:00Z,28.1910,-88.4960,48.2,10.6,15.0,99.0,'11111222,11111222,11144222' 
ADCP,ioos:station:wmo:42887:1,2016-01-02T02:20:00Z,28.1910,-88.4960,48.2,11.4,11.0,99.0,'11111222,11111222,11144222' 
ADCP,ioos:station:wmo:42887:1,2016-01-02T02:40:00Z,28.1910,-88.4960,48.2,10.1,11.0,99.0,'11111222,11111222,11144222' 
ADCP,ioos:station:wmo:42887:1,2016-01-02T03:00:00Z,28.1910,-88.4960,48.2,12.5,9.0,99.0,'11111222,11111222,11144222' 
ADCP,ioos:station:wmo:42887:1,2016-01-02T03:20:00Z,28.1910,-88.4960,48.2,11.3,15.0,99.0,'11111222,11111222,11144222' 
ADCP,ioos:station:wmo:42887:1,2016-01-02T03:40:00Z,28.1910,-88.4960,48.2,10.3,9.0,99.0,'11111222,11111222,11144222' 
ADCP,ioos:station:wmo:42887:1,2016-01-02T04:00:00Z,28.1910,-88.4960,48.2,10.1,16.0,99.0,'11111222,11111222,11144222' 
ADCP,ioos:station:wmo:42887:1,2016-01-02T04:20:00Z,28.1910,-88.4960,48.2,10.8,9.0,99.0,'11111222,11111222,11144222' 
ADCP,ioos:station:wmo:42887:1,2016-01-02T04:40:00Z,28.1910,-88.4960,48.2,11.3,11.0,99.0,'11111222,11111222,11144222' 
ADCP,ioos:station:wmo:42887:1,2016-01-02T05:00:00Z,28.1910,-88.4960,48.2,11.1,20.0,99.0,'11111222,11111222,11144222' 
ADCP,ioos:station:wmo:42887:1,2016-01-02T05:20:00Z,28.1910,-88.4960,48.2,11.0,14.0,99.0,'11111222,11111222,11144222' 
ADCP,ioos:station:wmo:42887:1,2016-01-02T05:40:00Z,28.1910,-88.4960,48.2,10.5,8.0,99.0,'11111222,11111222,11144222' 
ADCP,ioos:station:wmo:42887:1,2016-01-02T06:00:00Z,28.1910,-88.4960,48.2,10.6,9.0,99.0,'11111222,11111222,11144222' 
ADCP,ioos:station:wmo:42887:1,2016-01-02T06:20:00Z,28.1910,-88.4960,48.2,11.6,23.0,99.0,'11111222,11111222,11144222' 
ADCP,ioos:station:wmo:42887:1,2016-01-02T06:40:00Z,28.1910,-88.4960,48.2,10.7,9.0,99.0,'11111222,11111222,11144222' 
ADCP,ioos:station:wmo:42887:1,2016-01-02T07:00:00Z,28.1910,-88.4960,48.2,9.5,6.0,99.0,'11111222,11111222,11144222' 
ADCP,ioos:station:wmo:42887:1,2016-01-02T07:20:00Z,28.1910,-88.4960,48.2,9.8,14.0,99.0,'11111222,11111222,11144222' 
ADCP,ioos:station:wmo:42887:1,2016-01-02T07:40:00Z,28.1910,-88.4960,48.2,9.7,5.0,99.0,'11111222,11111222,11144222' 
ADCP,ioos:station:wmo:42887:1,2016-01-02T08:00:00Z,28.1910,-88.4960,48.2,9.5,11.0,99.0,'11111222,11111222,11144222' 
ADCP,ioos:station:wmo:42887:1,2016-01-02T08:20:00Z,28.1910,-88.4960,48.2,10.3,349.0,99.0,'11111222,11111222,11144222' 
ADCP,ioos:station:wmo:42887:1,2016-01-02T08:40:00Z,28.1910,-88.4960,48.2,8.7,12.0,99.0,'11111222,11111222,11144222' 
ADCP,ioos:station:wmo:42887:1,2016-01-02T09:00:00Z,28.1910,-88.4960,48.2,11.6,8.0,99.0,'11111222,11111222,11144222' 
ADCP,ioos:station:wmo:42887:1,2016-01-02T09:20:00Z,28.1910,-88.4960,48.2,11.6,14.0,99.0,'11111222,11111222,11144222' 
ADCP,ioos:station:wmo:42887:1,2016-01-02T09:40:00Z,28.1910,-88.4960,48.2,12.7,12.0,99.0,'11111222,11111222,11144222' 
ADCP,ioos:station:wmo:42887:1,2016-01-02T10:00:00Z,28.1910,-88.4960,48.2,11.7,21.0,99.0,'11111222,11111222,11144222' 
ADCP,ioos:station:wmo:42887:1,2016-01-02T10:20:00Z,28.1910,-88.4960,48.2,13.8,13.0,99.0,'11111222,11111222,11144222' 
ADCP,ioos:station:wmo:42887:1,2016-01-02T10:40:00Z,28.1910,-88.4960,48.2,10.5,19.0,99.0,'11111222,11111222,11144222' 
ADCP,ioos:station:wmo:42887:1,2016-01-02T11:00:00Z,28.1910,-88.4960,48.2,11.4,25.0,99.0,'11111222,11111222,11144222' 
ADCP,ioos:station:wmo:42887:1,2016-01-02T11:20:00Z,28.1910,-88.4960,48.2,10.3,44.0,99.0,'11111222,11111222,11144222' 
ADCP,ioos:station:wmo:42887:1,2016-01-02T11:40:00Z,28.1910,-88.4960,48.2,10.1,36.0,99.0,'11111222,11111222,11144222' 
ADCP,ioos:station:wmo:42887:1,2016-01-02T12:00:00Z,28.1910,-88.4960,48.2,10.5,15.0,99.0,'11111222,11111222,11144222' 
ADCP,ioos:station:wmo:42887:1,2016-01-02T12:20:00Z,28.1910,-88.4960,48.2,9.6,44.0,99.0,'11111222,11111222,11144222' 
ADCP,ioos:station:wmo:42887:1,2016-01-02T12:40:00Z,28.1910,-88.4960,48.2,9.6,15.0,99.0,'11111222,11111222,11144222' 
ADCP,ioos:station:wmo:42887:1,2016-01-02T13:00:00Z,28.1910,-88.4960,48.2,9.0,16.0,99.0,'11111222,11111222,11144222' 
ADCP,ioos:station:wmo:42887:1,2016-01-02T13:20:00Z,28.1910,-88.4960,48.2,11.2,10.0,99.0,'11111222,11111222,11144222' 
ADCP,ioos:station:wmo:42887:1,2016-01-02T13:40:00Z,28.1910,-88.4960,48.2,9.2,23.0,99.0,'11111222,11111222,11144222' 
ADCP,ioos:station:wmo:42887:1,2016-01-02T14:00:00Z,28.1910,-88.4960,48.2,10.2,15.0,99.0,'11111222,11111222,11144222' 
ADCP,ioos:station:wmo:42887:1,2016-01-02T14:20:00Z,28.1910,-88.4960,48.2,7.2,32.0,99.0,'11111222,11111222,11144222' 
ADCP,ioos:station:wmo:42887:1,2016-01-02T14:40:00Z,28.1910,-88.4960,48.2,9.6,16.0,99.0,'11111222,11111222,11144222' 
ADCP,ioos:station:wmo:42887:1,2016-01-02T15:00:00Z,28.1910,-88.4960,48.2,8.0,11.0,99.0,'11111222,11111222,11144222' 
ADCP,ioos:station:wmo:42887:1,2016-01-02T15:20:00Z,28.1910,-88.4960,48.2,9.0,13.0,99.0,'11111222,11111222,11144222' 
ADCP,ioos:station:wmo:42887:1,2016-01-02T15:40:00Z,28.1910,-88.4960,48.2,9.4,18.0,99.0,'11111222,11111222,11144222' 
ADCP,ioos:station:wmo:42887:1,2016-01-02T16:00:00Z,28.1910,-88.4960,48.2,10.1,17.0,99.0,'11111222,11111222,11144222' 
ADCP,ioos:station:wmo:42887:1,2016-01-02T16:20:00Z,28.1910,-88.4960,48.2,8.0,24.0,99.0,'11111222,11111222,11144222' 
ADCP,ioos:station:wmo:42887:1,2016-01-02T16:40:00Z,28.1910,-88.4960,48.2,8.3,35.0,99.0,'11111222,11111222,11144222' 
ADCP,ioos:station:wmo:42887:1,2016-01-02T17:00:00Z,28.1910,-88.4960,48.2,8.4,14.0,99.0,'11111222,11111222,11144222' 
ADCP,ioos:station:wmo:42887:1,2016-01-02T17:20:00Z,28.1910,-88.4960,48.2,8.0,31.0,99.0,'11111222,11111222,11144222' 
ADCP,ioos:station:wmo:42887:1,2016-01-02T17:40:00Z,28.1910,-88.4960,48.2,8.2,15.0,99.0,'11111222,11111222,11144222' 
ADCP,ioos:station:wmo:42887:1,2016-01-02T18:00:00Z,28.1910,-88.4960,48.2,8.9,19.0,99.0,'11111222,11111222,11144222' 
ADCP,ioos:station:wmo:42887:1,2016-01-02T18:20:00Z,28.1910,-88.4960,48.2,9.5,31.0,99.0,'11111222,11111222,11144222' 
ADCP,ioos:station:wmo:42887:1,2016-01-02T18:40:00Z,28.1910,-88.4960,48.2,7.9,41.0,99.0,'11111222,11111222,11144222' 
ADCP,ioos:station:wmo:42887:1,2016-01-02T19:00:00Z,28.1910,-88.4960,48.2,9.2,25.0,99.0,'11111222,11111222,11144222' 
ADCP,ioos:station:wmo:42887:1,2016-01-02T19:20:00Z,28.1910,-88.4960,48.2,7.7,19.0,99.0,'11111222,11111222,11144222' 
ADCP,ioos:station:wmo:42887:1,2016-01-02T19:40:00Z,28.1910,-88.4960,48.2,8.1,21.0,99.0,'11111222,11111222,11144222' 
ADCP,ioos:station:wmo:42887:1,2016-01-02T20:00:00Z,28.1910,-88.4960,48.2,7.2,6.0,99.0,'11111222,11111222,11144222' 
ADCP,ioos:station:wmo:42887:1,2016-01-02T20:20:00Z,28.1910,-88.4960,48.2,8.7,6.0,99.0,'11111222,11111222,11144222' 
ADCP,ioos:station:wmo:42887:1,2016-01-02T20:40:00Z,28.1910,-88.4960,48.2,8.6,18.0,99.0,'11111222,11111222,11144222' 
ADCP,ioos:station:wmo:42887:1,2016-01-02T21:00:00Z,28.1910,-88.4960,48.2,6.2,8.0,99.0,'11111222,11111222,11144222' 
ADCP,ioos:station:wmo:42887:1,2016-01-02T21:20:00Z,28.1910,-88.4960,48.2,7.5,1.0,99.0,'11111222,11111222,11144222' 
ADCP,ioos:station:wmo:42887:1,2016-01-02T21:40:00Z,28.1910,-88.4960,48.2,7.2,354.0,99.0,'11111222,11111222,11144222' 
ADCP,ioos:station:wmo:42887:1,2016-01-02T22:00:00Z,28.1910,-88.4960,48.2,6.8,8.0,99.0,'11111222,11111222,11144222' 
ADCP,ioos:station:wmo:42887:1,2016-01-02T22:20:00Z,28.1910,-88.4960,48.2,7.4,7.0,99.0,'11111222,11111222,11144222' 
ADCP,ioos:station:wmo:42887:1,2016-01-02T22:40:00Z,28.1910,-88.4960,48.2,7.2,8.0,99.0,'11111222,11111222,11144222' 
ADCP,ioos:station:wmo:42887:1,2016-01-02T23:00:00Z,28.1910,-88.4960,48.2,8.7,355.0,99.0,'11111222,11111222,11144222' 
ADCP,ioos:station:wmo:42887:1,2016-01-02T23:20:00Z,28.1910,-88.4960,48.2,6.4,5.0,99.0,'11111222,11111222,11144222' 
ADCP,ioos:station:wmo:42887:1,2016-01-02T23:40:00Z,28.1910,-88.4960,48.2,6.5,4.0,99.0,'11111222,11111222,11144222' 
ADCP,ioos:station:wmo:42887:1,2016-01-03T00:00:00Z,28.1910,-88.4960,48.2,7.7,5.0,99.0,'11111222,11111222,11144222' 
ADCP,ioos:station:wmo:42887:1,2016-01-03T00:20:00Z,28.1910,-88.4960,48.2,6.7,6.0,99.0,'11111222,11111222,11144222' 
ADCP,ioos:station:wmo:42887:1,2016-01-03T00:40:00Z,28.1910,-88.4960,48.2,8.7,8.0,99.0,'11111222,11111222,11144222' 
ADCP,ioos:station:wmo:42887:1,2016-01-03T01:00:00Z,28.1910,-88.4960,48.2,7.6,3.0,99.0,'11111222,11111222,11144222' 
ADCP,ioos:station:wmo:42887:1,2016-01-03T01:20:00Z,28.1910,-88.4960,48.2,6.6,6.0,99.0,'11111222,11111222,11144222' 
ADCP,ioos:station:wmo:42887:1,2016-01-03T01:40:00Z,28.1910,-88.4960,48.2,8.9,23.0,99.0,'11111222,11111222,11144222' 
ADCP,ioos:station:wmo:42887:1,2016-01-03T02:00:00Z,28.1910,-88.4960,48.2,8.8,27.0,99.0,'11111222,11111222,11144222' 
ADCP,ioos:station:wmo:42887:1,2016-01-03T02:20:00Z,28.1910,-88.4960,48.2,9.5,28.0,99.0,'11111222,11111222,11144222' 
ADCP,ioos:station:wmo:42887:1,2016-01-03T02:40:00Z,28.1910,-88.4960,48.2,9.7,7.0,99.0,'11111222,11111222,11144222' 
ADCP,ioos:station:wmo:42887:1,2016-01-03T03:00:00Z,28.1910,-88.4960,48.2,9.7,16.0,99.0,'11111222,11111222,11144222' 
ADCP,ioos:station:wmo:42887:1,2016-01-03T03:20:00Z,28.1910,-88.4960,48.2,8.7,2.0,99.0,'11111222,11111222,11144222' 
ADCP,ioos:station:wmo:42887:1,2016-01-03T03:40:00Z,28.1910,-88.4960,48.2,6.7,21.0,99.0,'11111222,11111222,11144222' 
ADCP,ioos:station:wmo:42887:1,2016-01-03T04:00:00Z,28.1910,-88.4960,48.2,7.9,52.0,99.0,'11111222,11111222,11144222' 
ADCP,ioos:station:wmo:42887:1,2016-01-03T04:20:00Z,28.1910,-88.4960,48.2,5.8,33.0,99.0,'11111222,11111222,11144222' 
ADCP,ioos:station:wmo:42887:1,2016-01-03T04:40:00Z,28.1910,-88.4960,48.2,7.3,13.0,99.0,'11111222,11111222,11144222' 
ADCP,ioos:station:wmo:42887:1,2016-01-03T05:00:00Z,28.1910,-88.4960,48.2,6.9,19.0,99.0,'11111222,11111222,11144222' 
ADCP,ioos:station:wmo:42887:1,2016-01-03T05:20:00Z,28.1910,-88.4960,48.2,7.2,9.0,99.0,'11111222,11111222,11144222' 
ADCP,ioos:station:wmo:42887:1,2016-01-03T05:40:00Z,28.1910,-88.4960,48.2,7.9,13.0,99.0,'11111222,11111222,11144222' 
ADCP,ioos:station:wmo:42887:1,2016-01-03T06:00:00Z,28.1910,-88.4960,48.2,7.2,34.0,99.0,'11111222,11111222,11144222' 
ADCP,ioos:station:wmo:42887:1,2016-01-03T06:20:00Z,28.1910,-88.4960,48.2,6.0,18.0,99.0,'11111222,11111222,11144222' 
ADCP,ioos:station:wmo:42887:1,2016-01-03T06:40:00Z,28.1910,-88.4960,48.2,5.6,56.0,99.0,'11111222,11111222,11144222' 
ADCP,ioos:station:wmo:42887:1,2016-01-03T07:00:00Z,28.1910,-88.4960,48.2,5.2,19.0,99.0,'11111222,11111222,11144222' 
ADCP,ioos:station:wmo:42887:1,2016-01-03T07:20:00Z,28.1910,-88.4960,48.2,6.2,23.0,99.0,'11111222,11111222,11144222' 
ADCP,ioos:station:wmo:42887:1,2016-01-03T07:40:00Z,28.1910,-88.4960,48.2,7.0,43.0,99.0,'11111222,11111222,11144222' 
ADCP,ioos:station:wmo:42887:1,2016-01-03T08:00:00Z,28.1910,-88.4960,48.2,6.1,22.0,99.0,'11111222,11111222,11144222' 
ADCP,ioos:station:wmo:42887:1,2016-01-03T08:20:00Z,28.1910,-88.4960,48.2,6.8,38.0,99.0,'11111222,11111222,11144222' 
ADCP,ioos:station:wmo:42887:1,2016-01-03T08:40:00Z,28.1910,-88.4960,48.2,6.2,38.0,99.0,'11111222,11111222,11144222' 
ADCP,ioos:station:wmo:42887:1,2016-01-03T09:00:00Z,28.1910,-88.4960,48.2,6.0,48.0,99.0,'11111222,11111222,11144222' 
ADCP,ioos:station:wmo:42887:1,2016-01-03T09:20:00Z,28.1910,-88.4960,48.2,6.0,47.0,99.0,'11111222,11111222,11144222' 
ADCP,ioos:station:wmo:42887:1,2016-01-03T09:40:00Z,28.1910,-88.4960,48.2,5.4,14.0,99.0,'11111222,11111222,11144222' 
ADCP,ioos:station:wmo:42887:1,2016-01-03T10:00:00Z,28.1910,-88.4960,48.2,6.5,10.0,99.0,'11111222,11111222,11144222' 
ADCP,ioos:station:wmo:42887:1,2016-01-03T10:20:00Z,28.1910,-88.4960,48.2,5.6,13.0,99.0,'11111222,11111222,11144222' 
ADCP,ioos:station:wmo:42887:1,2016-01-03T10:40:00Z,28.1910,-88.4960,48.2,4.4,11.0,99.0,'11111222,11111222,11144222' 
ADCP,ioos:station:wmo:42887:1,2016-01-03T11:00:00Z,28.1910,-88.4960,48.2,4.0,6.0,99.0,'11111222,11111222,11144222' 
ADCP,ioos:station:wmo:42887:1,2016-01-03T11:20:00Z,28.1910,-88.4960,48.2,4.1,19.0,99.0,'11111222,11111222,11144222' 
ADCP,ioos:station:wmo:42887:1,2016-01-03T11:40:00Z,28.1910,-88.4960,48.2,5.6,12.0,99.0,'11111222,11111222,11144222' 
ADCP,ioos:station:wmo:42887:1,2016-01-03T12:00:00Z,28.1910,-88.4960,48.2,6.4,4.0,99.0,'11111222,11111222,11144222' 
ADCP,ioos:station:wmo:42887:1,2016-01-03T12:20:00Z,28.1910,-88.4960,48.2,6.9,6.0,99.0,'11111222,11111222,11144222' 
ADCP,ioos:station:wmo:42887:1,2016-01-03T12:40:00Z,28.1910,-88.4960,48.2,6.4,15.0,99.0,'11111222,11111222,11144222' 
ADCP,ioos:station:wmo:42887:1,2016-01-03T13:00:00Z,28.1910,-88.4960,48.2,5.9,350.0,99.0,'11111222,11111222,11144222' 
ADCP,ioos:station:wmo:42887:1,2016-01-03T13:20:00Z,28.1910,-88.4960,48.2,7.6,357.0,99.0,'11111222,11111222,11144222' 
ADCP,ioos:station:wmo:42887:1,2016-01-03T13:40:00Z,28.1910,-88.4960,48.2,6.9,0.0,99.0,'11111222,11111222,11144222' 
ADCP,ioos:station:wmo:42887:1,2016-01-03T14:00:00Z,28.1910,-88.4960,48.2,6.7,7.0,99.0,'11111222,11111222,11144222' 
ADCP,ioos:station:wmo:42887:1,2016-01-03T14:20:00Z,28.1910,-88.4960,48.2,10.4,11.0,99.0,'11111222,11111222,11144222' 
ADCP,ioos:station:wmo:42887:1,2016-01-03T14:40:00Z,28.1910,-88.4960,48.2,7.7,4.0,99.0,'11111222,11111222,11144222' 
ADCP,ioos:station:wmo:42887:1,2016-01-03T15:00:00Z,28.1910,-88.4960,48.2,6.6,5.0,99.0,'11111222,11111222,11144222' 
ADCP,ioos:station:wmo:42887:1,2016-01-03T15:20:00Z,28.1910,-88.4960,48.2,8.9,356.0,99.0,'11111222,11111222,11144222' 
ADCP,ioos:station:wmo:42887:1,2016-01-03T15:40:00Z,28.1910,-88.4960,48.2,7.6,1.0,99.0,'11111222,11111222,11144222' 
ADCP,ioos:station:wmo:42887:1,2016-01-03T16:00:00Z,28.1910,-88.4960,48.2,7.1,0.0,99.0,'11111222,11111222,11144222' 
ADCP,ioos:station:wmo:42887:1,2016-01-03T16:20:00Z,28.1910,-88.4960,48.2,8.1,12.0,99.0,'11111222,11111222,11144222' 
ADCP,ioos:station:wmo:42887:1,2016-01-03T16:40:00Z,28.1910,-88.4960,48.2,9.4,12.0,99.0,'11111222,11111222,11144222' 
ADCP,ioos:station:wmo:42887:1,2016-01-03T17:00:00Z,28.1910,-88.4960,48.2,7.6,13.0,99.0,'11111222,11111222,11144222' 
ADCP,ioos:station:wmo:42887:1,2016-01-03T17:20:00Z,28.1910,-88.4960,48.2,7.2,358.0,99.0,'11111222,11111222,11144222' 
ADCP,ioos:station:wmo:42887:1,2016-01-03T17:40:00Z,28.1910,-88.4960,48.2,8.0,3.0,99.0,'11111222,11111222,11144222' 
ADCP,ioos:station:wmo:42887:1,2016-01-03T18:00:00Z,28.1910,-88.4960,48.2,7.9,347.0,99.0,'11111222,11111222,11144222' 
ADCP,ioos:station:wmo:42887:1,2016-01-03T18:20:00Z,28.1910,-88.4960,48.2,7.2,357.0,99.0,'11111222,11111222,11144222' 
ADCP,ioos:station:wmo:42887:1,2016-01-03T18:40:00Z,28.1910,-88.4960,48.2,8.6,1.0,99.0,'11111222,11111222,11144222' 
ADCP,ioos:station:wmo:42887:1,2016-01-03T19:00:00Z,28.1910,-88.4960,48.2,8.3,6.0,99.0,'11111222,11111222,11144222' 
ADCP,ioos:station:wmo:42887:1,2016-01-03T19:20:00Z,28.1910,-88.4960,48.2,7.8,4.0,99.0,'11111222,11111222,11144222' 
ADCP,ioos:station:wmo:42887:1,2016-01-03T19:40:00Z,28.1910,-88.4960,48.2,6.7,0.0,99.0,'11111222,11111222,11144222' 